Manitowish Waters, Manitowish, WI

3:48 AM CDT on March 24, 2017 (GMT -0500)
Manitowish Waters, Manitowish

Weather History for KD25 - September, 2014

Change the Weather History Date:

Tuesday, September 2, 2014

  Actual Average (KARV) Record (KARV)
Temperature  
Mean Temperature 59 °F -  
Max Temperature 72 °F 72 °F 90 °F (1953)
Min Temperature 46 °F 48 °F 34 °F (1916)
Degree Days  
Heating Degree Days 6    
Growing Degree Days 9 (Base 50)    
Moisture  
Dew Point 51 °F    
Average Humidity 79    
Maximum Humidity 100    
Minimum Humidity 42    
Precipitation  
Precipitation 0.00 in - - ()
Sea Level Pressure  
Sea Level Pressure 29.86 in    
Wind  
Wind Speed 2 mph (West)    
Max Wind Speed 13 mph    
Max Gust Speed 18 mph    
Visibility 9 miles    
Events Fog    
Averages and records for this station are not official NWS values.
T = Trace of Precipitation, MM = Missing Value Source: NWS Daily Summary

Daily Weather History Graph

Daily Weather History Graph

Search for Another Location

Airport or City:

Trip Planner

Search our weather history database for the weather conditions in past years. The results will help you decide how hot, cold, wet, or windy it might be!

Date:

Astronomy

Sep. 02, 2014 Rise Set
Actual Time 6:21 AM CDT 7:36 PM CDT
Civil Twilight 5:50 AM CDT 8:06 PM CDT
Nautical Twilight 5:13 AM CDT 8:43 PM CDT
Astronomical Twilight 4:33 AM CDT 9:23 PM CDT
Moon 2:29 PM CDT (9/2) No Moon Set
Length of Visible Light 14h 16m
Length of Day
13h 14m
First Quarter, 53% of the Moon is Illuminated
Sep 2
First Quarter
Sep 8
Full
Sep 15
Last Quarter
Sep 24
New
Oct 1
First Quarter

Hourly Weather History & Observations

Time (CDT) Temp. Dew Point Humidity Pressure Visibility Wind Dir Wind Speed Gust Speed Precip Events Conditions
12:15 AM 49.1 °F 49.1 °F 100% 29.79 in 10.0 mi Calm Calm - N/A   Clear
12:35 AM 50.5 °F 50.5 °F 100% 29.80 in 10.0 mi Calm Calm - N/A   Clear
12:55 AM 51.1 °F 51.1 °F 100% 29.80 in 10.0 mi Calm Calm - N/A   Clear
1:15 AM 48.4 °F 48.4 °F 100% 29.80 in 0.5 mi Calm Calm - N/A Fog Fog
1:35 AM 48.9 °F 48.9 °F 100% 29.81 in 0.5 mi Calm Calm - N/A Fog Fog
1:55 AM 48.9 °F 48.9 °F 100% 29.81 in 0.5 mi Calm Calm - N/A Fog Fog
2:15 AM 47.5 °F 47.5 °F 100% 29.82 in 0.5 mi Calm Calm - N/A Fog Fog
2:35 AM 48.2 °F 48.2 °F 100% 29.82 in 1.0 mi Calm Calm - N/A   Overcast
2:55 AM 46.8 °F 46.8 °F 100% 29.82 in 1.0 mi Calm Calm - N/A   Mostly Cloudy
3:15 AM 49.3 °F 49.3 °F 100% 29.82 in 7.0 mi Calm Calm - N/A   Scattered Clouds
3:35 AM 50.7 °F 50.7 °F 100% 29.82 in 10.0 mi Calm Calm - N/A   Overcast
3:55 AM 52.0 °F 52.0 °F 100% 29.82 in 10.0 mi Calm Calm - N/A   Overcast
4:15 AM 51.3 °F 51.3 °F 100% 29.82 in 10.0 mi WSW 3.5 mph - N/A   Scattered Clouds
4:35 AM 51.8 °F 51.8 °F 100% 29.81 in 10.0 mi Calm Calm - N/A   Clear
4:55 AM 50.5 °F 50.5 °F 100% 29.81 in 0.5 mi Calm Calm - N/A Fog Fog
5:15 AM 49.5 °F 49.5 °F 100% 29.81 in 1.0 mi Calm Calm - N/A   Mostly Cloudy
5:35 AM 48.7 °F 48.7 °F 100% 29.82 in 10.0 mi Calm Calm - N/A   Clear
5:55 AM 49.1 °F 49.1 °F 100% 29.82 in 5.0 mi Calm Calm - N/A   Clear
6:15 AM 50.7 °F 50.7 °F 100% 29.82 in 10.0 mi WSW 3.5 mph - N/A   Clear
6:35 AM 51.1 °F 51.1 °F 100% 29.82 in 10.0 mi WSW 3.5 mph - N/A   Clear
6:55 AM 51.6 °F 51.6 °F 100% 29.83 in 10.0 mi Calm Calm - N/A   Clear
7:15 AM 51.4 °F 51.4 °F 100% 29.84 in 10.0 mi Calm Calm - N/A   Clear
7:35 AM 52.2 °F 52.2 °F 100% 29.84 in 10.0 mi Calm Calm - N/A   Clear
7:55 AM 52.7 °F 52.7 °F 100% 29.84 in 10.0 mi Calm Calm - N/A   Clear
8:15 AM 53.8 °F 53.8 °F 100% 29.84 in 10.0 mi Calm Calm - N/A   Clear
8:35 AM 55.2 °F 55.2 °F 100% 29.84 in 10.0 mi Calm Calm - N/A   Clear
8:55 AM 56.3 °F 56.1 °F 99% 29.86 in 10.0 mi WSW 4.6 mph - N/A   Clear
9:15 AM 58.3 °F 56.5 °F 94% 29.86 in 10.0 mi WNW 3.5 mph - N/A   Clear
9:35 AM 59.4 °F 55.6 °F 87% 29.86 in 10.0 mi WNW 5.8 mph - N/A   Clear
9:55 AM 61.5 °F 56.1 °F 82% 29.86 in 10.0 mi West 6.9 mph - N/A   Clear
10:15 AM 62.6 °F 55.0 °F 76% 29.87 in 10.0 mi WNW 6.9 mph - N/A   Clear
10:35 AM 63.0 °F 54.7 °F 74% 29.87 in 10.0 mi WNW 5.8 mph - N/A   Clear
10:55 AM 64.8 °F 54.0 °F 68% 29.87 in 10.0 mi NW 6.9 mph - N/A   Clear
11:15 AM 66.0 °F 54.3 °F 66% 29.87 in 10.0 mi WNW 4.6 mph - N/A   Clear
11:35 AM 67.1 °F 53.4 °F 61% 29.87 in 10.0 mi WNW 8.1 mph - N/A   Clear
11:55 AM 68.4 °F 53.8 °F 60% 29.87 in 10.0 mi WNW 8.1 mph - N/A   Clear
12:15 PM 68.7 °F 52.2 °F 55% 29.87 in 10.0 mi West 8.1 mph - N/A   Scattered Clouds
12:35 PM 68.5 °F 51.3 °F 54% 29.86 in 10.0 mi WNW 4.6 mph - N/A   Scattered Clouds
12:55 PM 68.5 °F 49.1 °F 50% 29.87 in 10.0 mi WNW 6.9 mph - N/A   Clear
1:15 PM 68.9 °F 50.2 °F 51% 29.86 in 10.0 mi WNW 8.1 mph - N/A   Scattered Clouds
1:35 PM 70.2 °F 50.4 °F 49% 29.86 in 10.0 mi WNW 6.9 mph - N/A   Scattered Clouds
1:55 PM 70.5 °F 48.7 °F 46% 29.87 in 10.0 mi West 4.6 mph - N/A   Scattered Clouds
2:15 PM 71.8 °F 49.5 °F 45% 29.87 in 10.0 mi SW 8.1 mph 16.1 mph N/A   Mostly Cloudy
2:35 PM 71.4 °F 49.6 °F 46% 29.87 in 10.0 mi SW 8.1 mph - N/A   Mostly Cloudy
2:55 PM 72.7 °F 49.6 °F 44% 29.87 in 10.0 mi West 8.1 mph - N/A   Mostly Cloudy
3:15 PM 72.5 °F 48.6 °F 43% 29.87 in 10.0 mi WSW 9.2 mph - N/A   Scattered Clouds
3:35 PM 71.8 °F 48.4 °F 43% 29.87 in 10.0 mi West 10.4 mph 16.1 mph N/A   Scattered Clouds
3:55 PM 68.5 °F 49.3 °F 50% 29.87 in 10.0 mi West 8.1 mph - N/A   Scattered Clouds
4:15 PM 71.6 °F 48.6 °F 44% 29.87 in 10.0 mi West 6.9 mph - N/A   Clear
4:35 PM 71.6 °F 48.7 °F 44% 29.86 in 10.0 mi West 5.8 mph - N/A   Scattered Clouds
4:55 PM 71.4 °F 47.1 °F 42% 29.86 in 10.0 mi WSW 8.1 mph - N/A   Scattered Clouds
5:15 PM 71.4 °F 48.0 °F 43% 29.87 in 10.0 mi WSW 9.2 mph - N/A   Scattered Clouds
5:55 PM 70.3 °F 48.4 °F 46% 29.87 in 10.0 mi WSW 9.2 mph - N/A   Clear
6:15 PM 69.8 °F 48.9 °F 47% 29.87 in 10.0 mi WSW 8.1 mph - N/A   Clear
6:35 PM 68.7 °F 48.9 °F 49% 29.87 in 10.0 mi WSW 3.5 mph - N/A   Clear
6:55 PM 66.7 °F 49.8 °F 54% 29.87 in 10.0 mi WSW 3.5 mph - N/A   Clear
7:15 PM 64.6 °F 50.5 °F 60% 29.87 in 10.0 mi SW 4.6 mph - N/A   Clear
7:35 PM 63.7 °F 50.9 °F 63% 29.88 in 10.0 mi Calm Calm - N/A   Clear
7:55 PM 59.2 °F 53.6 °F 82% 29.88 in 10.0 mi Calm Calm - N/A   Clear
8:15 PM 57.0 °F 54.5 °F 91% 29.89 in 10.0 mi Calm Calm - N/A   Scattered Clouds
8:35 PM 54.5 °F 54.0 °F 98% 29.89 in 10.0 mi Calm Calm - N/A   Scattered Clouds
8:55 PM 58.8 °F 52.7 °F 80% 29.91 in 10.0 mi North 12.7 mph 18.4 mph N/A   Mostly Cloudy
9:15 PM 57.6 °F 52.5 °F 83% 29.91 in 10.0 mi NE 6.9 mph - N/A   Scattered Clouds
9:35 PM 56.5 °F 52.5 °F 87% 29.91 in 10.0 mi NE 8.1 mph - N/A   Clear
9:55 PM 55.0 °F 52.2 °F 90% 29.91 in 10.0 mi ENE 4.6 mph - N/A   Clear
10:15 PM 54.5 °F 52.5 °F 93% 29.90 in 10.0 mi Calm Calm - N/A   Clear
10:35 PM 54.5 °F 52.7 °F 94% 29.90 in 10.0 mi East 4.6 mph - N/A   Clear
10:55 PM 54.5 °F 52.7 °F 94% 29.90 in 10.0 mi Calm Calm - N/A   Clear
11:15 PM 54.0 °F 52.5 °F 95% 29.90 in 10.0 mi Calm Calm - N/A   Clear
11:35 PM 52.0 °F 51.4 °F 98% 29.90 in 10.0 mi SSE 3.5 mph - N/A   Clear
11:55 PM 52.0 °F 51.8 °F 99% 29.89 in 10.0 mi Calm Calm - N/A   Clear